Total_Precipitation_Accumulation
0.54 0.59 0.59 0.63 0.60 0.67 0.76 0.81 0.79 0.66 0.63 0.58 0.41 0.19 0.13 0.10 0.08 0.06 0.04 0.04 0.04 0.03 0.03 0.03 0.04 0.06 0.09 0.15 0.21 0.26 0.27 0.21 0.17 0.14 0.10 0.08 0.05 0.04
0.36 0.41 0.51 0.63 0.60 0.62 0.70 0.76 0.78 0.75 0.69 0.75 0.62 0.33 0.17 0.12 0.10 0.05 0.02 0.02 0.01 0.01 0.01 0.02 0.03 0.04 0.06 0.09 0.13 0.17 0.19 0.16 0.12 0.09 0.06 0.05 0.04 0.03
0.19 0.26 0.35 0.44 0.44 0.42 0.46 0.53 0.64 0.71 0.62 0.79 0.78 0.51 0.30 0.19 0.13 0.07 0.04 0.02 0.01 0.01 0.01 0.02 0.03 0.03 0.04 0.07 0.09 0.11 0.13 0.12 0.10 0.07 0.04 0.02 0.02 0.01
0.10 0.18 0.22 0.28 0.33 0.35 0.33 0.36 0.50 0.62 0.63 0.69 0.86 0.76 0.44 0.25 0.19 0.13 0.09 0.05 0.03 0.01 0.01 0.01 0.02 0.02 0.03 0.04 0.06 0.07 0.08 0.08 0.07 0.05 0.03 0.01 0.01 0.01
0.08 0.13 0.16 0.22 0.33 0.41 0.37 0.38 0.44 0.56 0.61 0.62 0.77 0.84 0.58 0.37 0.33 0.27 0.19 0.17 0.08 0.07 0.03 0.01 0.01 0.02 0.02 0.03 0.04 0.05 0.05 0.04 0.03 0.02 0.01 0.01 0.01 0.00
0.12 0.13 0.16 0.23 0.32 0.43 0.44 0.46 0.48 0.48 0.56 0.62 0.71 0.78 0.75 0.58 0.54 0.46 0.36 0.29 0.22 0.15 0.14 0.05 0.03 0.02 0.02 0.03 0.03 0.03 0.02 0.02 0.01 0.01 0.00 0.00 0.00 0.00
0.10 0.10 0.09 0.12 0.14 0.20 0.29 0.41 0.49 0.53 0.57 0.64 0.70 0.77 0.77 0.70 0.61 0.57 0.52 0.47 0.41 0.36 0.38 0.25 0.21 0.19 0.12 0.05 0.03 0.02 0.02 0.01 0.01 0.00 0.00 0.00 0.00 0.00
0.04 0.04 0.03 0.03 0.06 0.10 0.12 0.19 0.28 0.42 0.59 0.71 0.74 0.77 0.80 0.79 0.75 0.68 0.65 0.61 0.59 0.53 0.52 0.51 0.48 0.49 0.36 0.18 0.09 0.05 0.04 0.03 0.02 0.02 0.01 0.01 0.01 0.01
0.01 0.01 0.00 0.00 0.02 0.05 0.06 0.06 0.08 0.11 0.21 0.47 0.64 0.66 0.66 0.70 0.77 0.82 0.80 0.78 0.78 0.71 0.66 0.71 0.69 0.73 0.55 0.41 0.31 0.17 0.12 0.08 0.06 0.05 0.05 0.04 0.03 0.02
0.00 0.00 0.00 0.00 0.00 0.01 0.04 0.06 0.04 0.01 0.04 0.13 0.20 0.25 0.31 0.42 0.55 0.71 0.84 0.89 0.92 0.86 0.79 0.88 0.87 0.87 0.75 0.55 0.37 0.24 0.18 0.14 0.13 0.14 0.13 0.12 0.10 0.08
0.00 0.00 0.00 0.00 0.00 0.00 0.01 0.03 0.03 0.01 0.00 0.01 0.04 0.07 0.11 0.16 0.24 0.37 0.52 0.72 0.95 1.04 0.94 0.96 0.97 0.96 1.04 0.99 0.62 0.35 0.23 0.18 0.18 0.19 0.19 0.16 0.13 0.09
0.00 0.00 0.00 0.00 0.00 0.00 0.00 0.01 0.01 0.01 0.01 0.00 0.01 0.01 0.01 0.02 0.05 0.11 0.20 0.37 0.59 0.78 0.77 0.77 0.86 0.97 1.15 1.21 0.99 0.68 0.42 0.29 0.22 0.19 0.17 0.16 0.14 0.11
0.00 0.00 0.00 0.00 0.00 0.00 0.00 0.00 0.00 0.00 0.00 0.00 0.02 0.02 0.02 0.01 0.01 0.01 0.03 0.09 0.19 0.30 0.38 0.48 0.58 0.68 0.82 0.93 0.91 0.83 0.67 0.49 0.37 0.28 0.21 0.19 0.20 0.17
0.00 0.00 0.00 0.00 0.00 0.00 0.00 0.00 0.00 0.00 0.00 0.00 0.01 0.02 0.02 0.01 0.00 0.00 0.00 0.01 0.03 0.06 0.09 0.17 0.28 0.35 0.40 0.48 0.55 0.56 0.56 0.51 0.46 0.41 0.32 0.24 0.18 0.15
0.01 0.00 0.00 0.00 0.00 0.00 0.00 0.00 0.00 0.00 0.00 0.00 0.01 0.01 0.01 0.00 0.00 0.00 0.00 0.00 0.00 0.00 0.01 0.03 0.06 0.09 0.14 0.22 0.26 0.26 0.29 0.32 0.33 0.33 0.32 0.30 0.27 0.24
0.01 0.01 0.00 0.00 0.00 0.00 0.00 0.00 0.00 0.00 0.00 0.01 0.02 0.02 0.02 0.01 0.01 0.01 0.01 0.01 0.01 0.00 0.00 0.00 0.01 0.02 0.04 0.08 0.13 0.15 0.14 0.15 0.17 0.19 0.21 0.27 0.33 0.32
0.01 0.01 0.01 0.01 0.01 0.01 0.00 0.00 0.00 0.00 0.00 0.00 0.01 0.02 0.02 0.03 0.03 0.03 0.02 0.02 0.01 0.01 0.01 0.00 0.00 0.00 0.01 0.04 0.08 0.10 0.10 0.08 0.09 0.14 0.18 0.22 0.21 0.17
0.01 0.03 0.04 0.04 0.03 0.02 0.01 0.01 0.01 0.01 0.01 0.01 0.01 0.01 0.02 0.02 0.03 0.04 0.04 0.03 0.03 0.03 0.03 0.03 0.02 0.01 0.01 0.02 0.05 0.07 0.07 0.07 0.07 0.08 0.12 0.13 0.12 0.08
0.01 0.03 0.05 0.05 0.04 0.03 0.03 0.02 0.02 0.02 0.02 0.01 0.02 0.02 0.02 0.02 0.02 0.04 0.04 0.04 0.04 0.04 0.06 0.07 0.06 0.04 0.03 0.03 0.03 0.03 0.04 0.04 0.04 0.05 0.06 0.06 0.06 0.06
0.00 0.01 0.03 0.03 0.03 0.03 0.03 0.02 0.02 0.02 0.02 0.02 0.02 0.02 0.02 0.02 0.03 0.03 0.04 0.05 0.07 0.08 0.08 0.09 0.11 0.10 0.08 0.06 0.04 0.04 0.03 0.02 0.02 0.03 0.04 0.03 0.03 0.02
0.00 0.00 0.00 0.01 0.01 0.01 0.01 0.01 0.01 0.01 0.02 0.02 0.02 0.03 0.03 0.03 0.04 0.05 0.05 0.06 0.06 0.07 0.09 0.09 0.10 0.12 0.11 0.10 0.08 0.08 0.09 0.06 0.03 0.02 0.03 0.02 0.02 0.02
0.00 0.00 0.00 0.00 0.00 0.00 0.00 0.00 0.00 0.01 0.01 0.01 0.01 0.01 0.01 0.02 0.03 0.04 0.05 0.06 0.07 0.08 0.09 0.10 0.10 0.12 0.15 0.18 0.17 0.13 0.10 0.10 0.07 0.04 0.03 0.01 0.01 0.01
0.00 0.00 0.00 0.00 0.00 0.00 0.00 0.00 0.00 0.00 0.00 0.00 0.00 0.00 0.00 0.01 0.01 0.02 0.03 0.04 0.05 0.05 0.06 0.09 0.11 0.14 0.17 0.20 0.21 0.19 0.15 0.12 0.10 0.08 0.05 0.03 0.01 0.00